Hourly Data Report for October 04, 2014

All times are specified in Local Standard Time (LST). Add 1 hour to adjust for Daylight Saving Time where and when it is observed.

RANKIN INLET A
NUNAVUT

62°48'38.000" N
92°06'53.000" W
32.30 m
2303405
71083
YRT

Download Data

Hourly Data (October 2014)
Hourly Data Report for October 4, 2014
Temp Definition
°C
Dew Point Temp Definition
°C
Rel Hum Definition
%
Wind Dir Definition
10's deg

Wind Spd Definition
km/h
Visibility Definition
km
Stn Press Definition
kPa
Hmdx Definition


Wind Chill Definition


Weather Definition


TIME
00:00 Legend Double Dagger -2.5 -4.7 85 1 26 24.1 101.02   -9 Cloudy
01:00 Legend Double Dagger -2.5 -4.7 85 1 30 24.1 100.99   -10 LegendNANA
02:00 Legend Double Dagger -2.7 -4.9 85 1 32 24.1 100.96   -10 LegendNANA
03:00 Legend Double Dagger -2.8 -4.8 86 2 31 24.1 100.95   -10 Cloudy
04:00 Legend Double Dagger -2.8 -4.5 88 1 31 24.1 100.93   -10 LegendNANA
05:00 Legend Double Dagger -2.8 -4.5 88 2 31 24.1 100.95   -10 LegendNANA
06:00 Legend Double Dagger -2.8 -4.5 88 2 32 24.1 100.91   -10 Cloudy
07:00 Legend Double Dagger -2.7 -4.7 86 2 30 24.1 100.87   -10 LegendNANA
08:00 Legend Double Dagger -2.7 -5.2 83 2 29 24.1 100.86   -10 LegendNANA
09:00 Legend Double Dagger -2.6 -5.1 83 2 33 24.1 100.80   -10 Cloudy
10:00 Legend Double Dagger -2.5 -4.8 84 2 34 19.3 100.76   -10 LegendNANA
11:00 Legend Double Dagger -2.5 -4.5 86 2 30 19.3 100.76   -10 LegendNANA
12:00 Legend Double Dagger -2.7 -4.9 85 2 39 24.1 100.73   -11 Cloudy
13:00 Legend Double Dagger -2.7 -5.2 83 2 37 16.1 100.68   -11 LegendNANA
14:00 Legend Double Dagger -2.7 -5.2 83 1 41 16.1 100.63   -11 LegendNANA
15:00 Legend Double Dagger -2.3 -4.8 83 2 34 16.1 100.60   -10 Cloudy
16:00 Legend Double Dagger -2.0 -4.4 84 2 35 16.1 100.56   -10 LegendNANA
17:00 Legend Double Dagger -1.8 -4.0 85 1 36 16.1 100.52   -9 LegendNANA
18:00 Legend Double Dagger -1.6 -3.8 85 2 30 19.3 100.52   -9 Cloudy
19:00 Legend Double Dagger -1.6 -4.3 82 2 39 19.3 100.48   -9 LegendNANA
20:00 Legend Double Dagger -2.0 -4.2 85 2 39 24.1 100.40   -10 LegendNANA
21:00 Legend Double Dagger -2.0 -3.9 87 2 39 19.3 100.35   -10 Cloudy
22:00 Legend Double Dagger -1.7 -3.0 91 2 40 24.1 100.28   -10 LegendNANA
23:00 Legend Double Dagger -1.3 -2.7 90 3 40 24.1 100.23   -9 LegendNANA

Notes on Data Quality.

Legend

  • E = Estimated
  • M = Missing
  • NA = Not Available
  • ‡ = Partner data that is not subject to review by the National Climate Archives
Date modified: